Flag for Uzbekistan Weather past 2 weeks in Tashkent, Uzbekistan

Now
84 °F

Scattered clouds.


Feels Like: 81 °F
Forecast: 61 / 88 °F
Wind: 6 mph from Northeast

Location: Tashkent

Current Time: May 26, 2015 at 3:43:15 PM

Latest Report: May 26, 2015 at 3:00 PM


Visibility: N/A

Pressure: 29.98 "Hg

Humidity: 20%

Dew point: 39 °F

Location of TashkentLocation

Historic Weather in Tashkent — Graph

°F

Tashkent temperature yesterday

Maximum temperature yesterday: 79 °F (at 4:00 PM)
Minimum temperature yesterday: 55 °F (at 5:00 AM)
Average temperature yesterday: 67 °F

Past Weeks' High & Low Weather Summary

 TemperatureHumidityPressure
High95 °F (May 15, 1:30 PM)94% (May 16, 12:30 PM)30.12 "Hg (May 16, 12:30 PM)
Low55 °F (May 25, 5:00 AM)12% (May 22, 5:30 PM)29.62 "Hg (May 16, 6:00 AM)
Average73 °F45%29.97 "Hg
* Reported May 11 2:00 PM — May 26 2:00 PM, Tashkent, Weather by CustomWeather, © 2015

Note: Actual official high and low records may vary slightly from our data, if they occured in-between our weather recording intervals... More about our weather records

Advertising

Tashkent weather history for previous 24 hours

 ConditionsComfort  
Time TempWeatherWind HumidityBarometerVisibility
2:00 PM
Tue, May 26
84 °FPassing clouds.9 mph20%30.01 "HgN/A
1:30 PM84 °FPassing clouds.6 mph20%30.01 "HgN/A
1:00 PM84 °FPassing clouds.6 mph19%30.01 "HgN/A
12:30 PM82 °FPassing clouds.10 mph21%30.04 "HgN/A
12:00 PM81 °FPassing clouds.8 mph24%30.04 "HgN/A
11:30 AM81 °FSunny.8 mph24%30.07 "Hg10 mi
11:00 AM79 °FPassing clouds.8 mph28%30.07 "HgN/A
10:30 AM79 °FSunny.5 mph28%30.07 "Hg10 mi
10:00 AM77 °FPassing clouds.8 mph30%30.07 "HgN/A
9:30 AM77 °FSunny.6 mph32%30.07 "Hg10 mi
9:00 AM75 °FPassing clouds.5 mph36%30.09 "HgN/A
8:30 AM73 °FSunny.2 mph38%30.09 "Hg10 mi
8:00 AM72 °FSunny.2 mph44%30.09 "Hg10 mi
7:30 AM68 °FSunny.3 mph49%30.09 "Hg10 mi
7:00 AM66 °FSunny.8 mph52%30.09 "Hg10 mi
6:30 AM63 °FSunny.7 mph59%30.09 "Hg10 mi
6:00 AM61 °FSunny.7 mph63%30.09 "Hg10 mi
5:30 AM61 °FSunny.5 mph63%30.09 "Hg10 mi
5:00 AM57 °FSunny.7 mph72%30.09 "Hg10 mi
4:30 AM59 °FClear.7 mph68%30.09 "Hg10 mi
4:00 AM57 °FClear.6 mph72%30.07 "Hg10 mi
3:30 AM55 °FClear.6 mph77%30.07 "Hg10 mi
3:00 AM61 °FPassing clouds.8 mph63%30.09 "HgN/A
2:30 AM61 °FClear.8 mph68%30.09 "Hg10 mi
2:00 AM63 °FClear.7 mph64%30.09 "Hg10 mi
1:30 AM59 °FClear.7 mph72%30.09 "Hg10 mi
1:00 AM63 °FClear.6 mph64%30.09 "Hg10 mi
12:30 AM63 °FClear.6 mph68%30.09 "Hg10 mi
12:00 AM64 °FClear.5 mph64%30.12 "Hg10 mi
11:30 PM
Mon, May 25
63 °FClear.7 mph68%30.12 "Hg10 mi
11:00 PM64 °FClear.7 mph60%30.12 "Hg10 mi
10:30 PM68 °FPassing clouds.3 mph49%30.12 "HgN/A
10:00 PM68 °FClear.No wind53%30.12 "Hg10 mi
9:30 PM70 °FPassing clouds.3 mph50%30.12 "HgN/A
9:00 PM70 °FClear.6 mph50%30.12 "Hg10 mi
8:30 PM70 °FClear.5 mph46%30.09 "Hg10 mi
8:00 PM72 °FClear.6 mph44%30.09 "Hg10 mi
7:30 PM73 °FSunny.7 mph41%30.09 "Hg10 mi
7:00 PM73 °FSunny.7 mph41%30.09 "Hg10 mi
6:30 PM75 °FPassing clouds.8 mph36%30.09 "HgN/A
6:00 PM77 °FSunny.10 mph34%30.09 "Hg10 mi
5:30 PM77 °FPassing clouds.6 mph32%30.09 "HgN/A
5:00 PM79 °FPassing clouds.7 mph28%30.09 "HgN/A
4:30 PM79 °FSunny.5 mph24%30.09 "Hg10 mi
4:00 PM79 °FSunny.6 mph26%30.09 "Hg10 mi
3:30 PM77 °FPassing clouds.8 mph28%30.09 "HgN/A
3:00 PM77 °FSunny.6 mph28%30.09 "Hg10 mi
Weather by CustomWeather, © 2015

See weather overviewHow to use our weather pages